Time,TemperatureF,DewpointF,PressureIn,WindDirection,WindDirectionDegrees,WindSpeedMPH,WindSpeedGustMPH,Humidity,HourlyPrecipIn,Conditions,Clouds,dailyrainin,SoftwareType,DateUTC
2013-04-25 00:00:00,73.6,64.0,30.16,SE,125,3.0,5.0,72,0.00,,CLR,0.00,VWS V14.01,2013-04-25 04:00:00,
2013-04-25 00:01:00,73.6,64.0,30.16,SE,125,4.0,5.0,72,0.00,,CLR,0.00,VWS V14.01,2013-04-25 04:01:00,
2013-04-25 00:06:00,73.5,63.9,30.16,ESE,123,1.0,5.0,72,0.00,,CLR,0.00,VWS V14.01,2013-04-25 04:06:00,
2013-04-25 00:11:00,73.4,63.8,30.16,ESE,118,1.0,6.0,72,0.00,,CLR,0.00,VWS V14.01,2013-04-25 04:11:00,
2013-04-25 00:16:00,73.4,63.8,30.15,ESE,115,2.0,6.0,72,0.00,,CLR,0.00,VWS V14.01,2013-04-25 04:16:00,
2013-04-25 00:21:00,73.4,63.8,30.15,SE,127,0.0,6.0,72,0.00,,CLR,0.00,VWS V14.01,2013-04-25 04:21:00,
2013-04-25 00:26:00,73.4,63.8,30.15,SE,127,0.0,6.0,72,0.00,,CLR,0.00,VWS V14.01,2013-04-25 04:26:00,
2013-04-25 00:31:00,73.4,63.8,30.15,SE,134,0.0,6.0,72,0.00,,CLR,0.00,VWS V14.01,2013-04-25 04:31:00,
2013-04-25 00:36:00,73.3,63.7,30.15,SE,129,2.0,6.0,72,0.00,,CLR,0.00,VWS V14.01,2013-04-25 04:36:00,
2013-04-25 00:41:00,73.2,64.0,30.15,East,97,5.0,6.0,73,0.00,,CLR,0.00,VWS V14.01,2013-04-25 04:41:00,
2013-04-25 00:46:00,73.2,63.6,30.14,ESE,107,3.0,6.0,72,0.00,,CLR,0.00,VWS V14.01,2013-04-25 04:46:00,
2013-04-25 00:51:00,73.1,63.5,30.14,ESE,119,3.0,8.0,72,0.00,,CLR,0.00,VWS V14.01,2013-04-25 04:51:00,
2013-04-25 00:56:00,73.0,63.8,30.14,SE,124,4.0,8.0,73,0.00,,CLR,0.00,VWS V14.01,2013-04-25 04:56:00,
2013-04-25 01:01:00,72.9,63.8,30.14,SE,125,3.0,6.0,73,0.00,,CLR,0.00,VWS V14.01,2013-04-25 05:01:00,
2013-04-25 01:06:00,72.9,63.8,30.14,ESE,121,1.0,6.0,73,0.00,,CLR,0.00,VWS V14.01,2013-04-25 05:06:00,
2013-04-25 01:11:00,72.9,63.8,30.14,ESE,120,3.0,6.0,73,0.00,,CLR,0.00,VWS V14.01,2013-04-25 05:11:00,
2013-04-25 01:16:00,72.9,64.1,30.14,ESE,111,1.0,6.0,74,0.00,,CLR,0.00,VWS V14.01,2013-04-25 05:16:00,
2013-04-25 01:21:00,72.9,64.5,30.13,ESE,123,4.0,9.0,75,0.00,,CLR,0.00,VWS V14.01,2013-04-25 05:21:00,
2013-04-25 01:26:00,72.9,64.5,30.13,ESE,123,2.0,9.0,75,0.00,,CLR,0.00,VWS V14.01,2013-04-25 05:26:00,
2013-04-25 01:31:00,72.9,64.5,30.13,SE,125,1.0,9.0,75,0.00,,CLR,0.00,VWS V14.01,2013-04-25 05:31:00,
2013-04-25 01:36:00,72.9,64.5,30.13,SE,125,0.0,9.0,75,0.00,,CLR,0.00,VWS V14.01,2013-04-25 05:36:00,
2013-04-25 01:41:00,72.9,64.9,30.14,ESE,123,4.0,9.0,76,0.00,,CLR,0.00,VWS V14.01,2013-04-25 05:41:00,
2013-04-25 01:46:00,73.0,64.6,30.13,ESE,119,2.0,9.0,75,0.00,,CLR,0.00,VWS V14.01,2013-04-25 05:46:00,
2013-04-25 01:51:00,72.9,64.5,30.13,ESE,119,0.0,9.0,75,0.00,,CLR,0.00,VWS V14.01,2013-04-25 05:51:00,
2013-04-25 01:56:00,73.0,64.6,30.12,SE,129,2.0,9.0,75,0.00,,CLR,0.00,VWS V14.01,2013-04-25 05:56:00,
2013-04-25 02:01:00,72.9,64.5,30.12,SE,129,4.0,4.0,75,0.00,,CLR,0.00,VWS V14.01,2013-04-25 06:01:00,
2013-04-25 02:06:00,72.9,64.5,30.12,ESE,115,2.0,6.0,75,0.00,,CLR,0.00,VWS V14.01,2013-04-25 06:06:00,
2013-04-25 02:11:00,72.9,64.9,30.12,ESE,115,0.0,6.0,76,0.00,,CLR,0.00,VWS V14.01,2013-04-25 06:11:00,
2013-04-25 02:16:00,72.8,64.8,30.12,ESE,123,1.0,6.0,76,0.00,,CLR,0.00,VWS V14.01,2013-04-25 06:16:00,
2013-04-25 02:21:00,72.8,64.8,30.13,ESE,122,2.0,6.0,76,0.00,,CLR,0.00,VWS V14.01,2013-04-25 06:21:00,
2013-04-25 02:26:00,72.7,65.1,30.12,ESE,120,1.0,6.0,77,0.00,,CLR,0.00,VWS V14.01,2013-04-25 06:26:00,
2013-04-25 02:31:00,72.7,65.1,30.12,ESE,120,0.0,6.0,77,0.00,,CLR,0.00,VWS V14.01,2013-04-25 06:31:00,
2013-04-25 02:36:00,72.6,64.6,30.12,SE,125,1.0,6.0,76,0.00,,CLR,0.00,VWS V14.01,2013-04-25 06:36:00,
2013-04-25 02:41:00,72.6,65.0,30.12,ESE,122,2.0,6.0,77,0.00,,CLR,0.00,VWS V14.01,2013-04-25 06:41:00,
2013-04-25 02:46:00,72.5,64.5,30.11,SE,127,3.0,6.0,76,0.00,,CLR,0.00,VWS V14.01,2013-04-25 06:46:00,
2013-04-25 02:51:00,72.5,64.5,30.12,SE,127,3.0,6.0,76,0.00,,CLR,0.00,VWS V14.01,2013-04-25 06:51:00,
2013-04-25 02:56:00,72.5,64.5,30.11,SE,126,0.0,6.0,76,0.00,,CLR,0.00,VWS V14.01,2013-04-25 06:56:00,
2013-04-25 03:01:00,72.4,64.8,30.11,SE,126,2.0,3.0,77,0.00,,CLR,0.00,VWS V14.01,2013-04-25 07:01:00,
2013-04-25 03:06:00,72.4,64.4,30.11,SE,126,2.0,4.0,76,0.00,,CLR,0.00,VWS V14.01,2013-04-25 07:06:00,
2013-04-25 03:11:00,72.4,64.4,30.11,SE,126,0.0,4.0,76,0.00,,CLR,0.00,VWS V14.01,2013-04-25 07:11:00,
2013-04-25 03:16:00,72.3,64.3,30.11,SE,125,3.0,4.0,76,0.00,,CLR,0.00,VWS V14.01,2013-04-25 07:16:00,
2013-04-25 03:21:00,72.3,64.3,30.11,ESE,119,3.0,6.0,76,0.00,,CLR,0.00,VWS V14.01,2013-04-25 07:21:00,
2013-04-25 03:26:00,72.2,64.6,30.11,ESE,123,2.0,6.0,77,0.00,,CLR,0.00,VWS V14.01,2013-04-25 07:26:00,
2013-04-25 03:31:00,72.1,64.5,30.11,ESE,115,3.0,6.0,77,0.00,,CLR,0.00,VWS V14.01,2013-04-25 07:31:00,
2013-04-25 03:36:00,72.1,64.5,30.11,ESE,109,2.0,6.0,77,0.00,,CLR,0.00,VWS V14.01,2013-04-25 07:36:00,
2013-04-25 03:41:00,72.0,64.4,30.11,ESE,120,3.0,6.0,77,0.00,,CLR,0.00,VWS V14.01,2013-04-25 07:41:00,
2013-04-25 03:46:00,72.0,64.8,30.12,SE,132,2.0,6.0,78,0.00,,CLR,0.00,VWS V14.01,2013-04-25 07:46:00,
2013-04-25 03:51:00,72.0,64.4,30.11,ESE,117,2.0,6.0,77,0.00,,CLR,0.00,VWS V14.01,2013-04-25 07:51:00,
2013-04-25 03:56:00,72.0,64.4,30.11,ESE,117,3.0,6.0,77,0.00,,CLR,0.00,VWS V14.01,2013-04-25 07:56:00,
2013-04-25 04:01:00,72.0,64.4,30.12,SE,143,2.0,5.0,77,0.00,,CLR,0.00,VWS V14.01,2013-04-25 08:01:00,
2013-04-25 04:06:00,72.0,64.4,30.11,SE,143,0.0,5.0,77,0.00,,CLR,0.00,VWS V14.01,2013-04-25 08:06:00,
2013-04-25 04:11:00,72.0,64.4,30.11,SE,142,0.0,5.0,77,0.00,,CLR,0.00,VWS V14.01,2013-04-25 08:11:00,
2013-04-25 04:16:00,72.0,64.4,30.12,SE,142,0.0,5.0,77,0.00,,CLR,0.00,VWS V14.01,2013-04-25 08:16:00,
2013-04-25 04:21:00,72.0,64.4,30.12,SSE,153,0.0,5.0,77,0.00,,CLR,0.00,VWS V14.01,2013-04-25 08:21:00,
2013-04-25 04:26:00,71.9,64.3,30.11,SSE,153,0.0,5.0,77,0.00,,CLR,0.00,VWS V14.01,2013-04-25 08:26:00,
2013-04-25 04:31:00,72.0,64.4,30.11,SSE,152,0.0,5.0,77,0.00,,CLR,0.00,VWS V14.01,2013-04-25 08:31:00,
2013-04-25 04:36:00,71.9,64.7,30.11,SE,124,0.0,5.0,78,0.00,,CLR,0.00,VWS V14.01,2013-04-25 08:36:00,
2013-04-25 04:41:00,71.9,64.7,30.12,SE,126,0.0,5.0,78,0.00,,CLR,0.00,VWS V14.01,2013-04-25 08:41:00,
2013-04-25 04:46:00,71.9,64.3,30.11,SE,142,0.0,5.0,77,0.00,,CLR,0.00,VWS V14.01,2013-04-25 08:46:00,
2013-04-25 04:51:00,71.9,64.3,30.12,SE,143,0.0,5.0,77,0.00,,CLR,0.00,VWS V14.01,2013-04-25 08:51:00,
2013-04-25 04:56:00,71.8,64.6,30.12,SE,138,0.0,5.0,78,0.00,,CLR,0.00,VWS V14.01,2013-04-25 08:56:00,
2013-04-25 05:01:00,71.7,64.5,30.12,SE,140,0.0,0.0,78,0.00,,CLR,0.00,VWS V14.01,2013-04-25 09:01:00,
2013-04-25 05:06:00,71.5,64.3,30.12,SE,136,0.0,0.0,78,0.00,,CLR,0.00,VWS V14.01,2013-04-25 09:06:00,
2013-04-25 05:11:00,71.3,64.1,30.12,SE,137,0.0,0.0,78,0.00,,CLR,0.00,VWS V14.01,2013-04-25 09:11:00,
2013-04-25 05:16:00,71.2,63.6,30.13,SE,145,0.0,0.0,77,0.00,,CLR,0.00,VWS V14.01,2013-04-25 09:16:00,
2013-04-25 05:21:00,70.9,63.3,30.13,SE,144,0.0,0.0,77,0.00,,CLR,0.00,VWS V14.01,2013-04-25 09:21:00,
2013-04-25 05:26:00,70.6,63.4,30.13,SE,144,0.0,0.0,78,0.00,,CLR,0.00,VWS V14.01,2013-04-25 09:26:00,
2013-04-25 05:31:00,70.4,63.2,30.13,SE,145,0.0,0.0,78,0.00,,CLR,0.00,VWS V14.01,2013-04-25 09:31:00,
2013-04-25 05:36:00,70.1,62.9,30.14,SE,144,0.0,0.0,78,0.00,,CLR,0.00,VWS V14.01,2013-04-25 09:36:00,
2013-04-25 05:41:00,70.0,63.2,30.14,SE,144,0.0,0.0,79,0.00,,CLR,0.00,VWS V14.01,2013-04-25 09:41:00,
2013-04-25 05:46:00,69.7,62.9,30.14,SE,141,0.0,0.0,79,0.00,,CLR,0.00,VWS V14.01,2013-04-25 09:46:00,
2013-04-25 05:51:00,69.6,62.8,30.14,SE,145,0.0,0.0,79,0.00,,CLR,0.00,VWS V14.01,2013-04-25 09:51:00,
2013-04-25 05:56:00,69.5,62.7,30.14,SE,145,0.0,0.0,79,0.00,,CLR,0.00,VWS V14.01,2013-04-25 09:56:00,
2013-04-25 06:01:00,69.3,62.5,30.14,SE,143,0.0,0.0,79,0.00,,CLR,0.00,VWS V14.01,2013-04-25 10:01:00,
2013-04-25 06:06:00,69.1,62.7,30.14,SE,137,0.0,0.0,80,0.00,,CLR,0.00,VWS V14.01,2013-04-25 10:06:00,
2013-04-25 06:11:00,69.0,63.3,30.14,SE,129,0.0,0.0,82,0.00,,CLR,0.00,VWS V14.01,2013-04-25 10:11:00,
2013-04-25 06:16:00,68.8,62.4,30.14,SE,144,0.0,0.0,80,0.00,,CLR,0.00,VWS V14.01,2013-04-25 10:16:00,
2013-04-25 06:21:00,68.6,62.5,30.14,SE,138,0.0,0.0,81,0.00,,CLR,0.00,VWS V14.01,2013-04-25 10:21:00,
2013-04-25 06:26:00,68.4,62.3,30.15,SE,139,0.0,0.0,81,0.00,,CLR,0.00,VWS V14.01,2013-04-25 10:26:00,
2013-04-25 06:31:00,68.3,62.2,30.15,SE,142,0.0,0.0,81,0.00,,CLR,0.00,VWS V14.01,2013-04-25 10:31:00,
2013-04-25 06:36:00,68.1,62.4,30.15,SE,139,0.0,0.0,82,0.00,,CLR,0.00,VWS V14.01,2013-04-25 10:36:00,
2013-04-25 06:41:00,67.9,62.2,30.16,WSW,256,0.0,0.0,82,0.00,,CLR,0.00,VWS V14.01,2013-04-25 10:41:00,
2013-04-25 06:46:00,67.6,62.3,30.16,WSW,257,0.0,1.0,83,0.00,,CLR,0.00,VWS V14.01,2013-04-25 10:46:00,
2013-04-25 06:51:00,67.4,62.1,30.16,WSW,257,0.0,1.0,83,0.00,,CLR,0.00,VWS V14.01,2013-04-25 10:51:00,
2013-04-25 06:56:00,67.3,62.0,30.16,WSW,257,0.0,1.0,83,0.00,,CLR,0.00,VWS V14.01,2013-04-25 10:56:00,
2013-04-25 07:01:00,67.2,61.9,30.17,WSW,257,0.0,0.0,83,0.00,,CLR,0.00,VWS V14.01,2013-04-25 11:01:00,
2013-04-25 07:06:00,66.9,61.9,30.17,WSW,257,0.0,3.0,84,0.00,,CLR,0.00,VWS V14.01,2013-04-25 11:06:00,
2013-04-25 07:11:00,66.7,61.7,30.18,WSW,257,0.0,3.0,84,0.00,,CLR,0.00,VWS V14.01,2013-04-25 11:11:00,
2013-04-25 07:16:00,66.4,61.8,30.17,West,262,0.0,3.0,85,0.00,,CLR,0.00,VWS V14.01,2013-04-25 11:16:00,
2013-04-25 07:21:00,66.2,61.6,30.18,West,266,0.0,3.0,85,0.00,,CLR,0.00,VWS V14.01,2013-04-25 11:21:00,
2013-04-25 07:26:00,66.2,61.6,30.18,West,267,0.0,3.0,85,0.00,,CLR,0.00,VWS V14.01,2013-04-25 11:26:00,
2013-04-25 07:31:00,66.2,61.9,30.18,West,267,0.0,3.0,86,0.00,,CLR,0.00,VWS V14.01,2013-04-25 11:31:00,
2013-04-25 07:36:00,66.3,62.3,30.18,West,267,0.0,3.0,87,0.00,,CLR,0.00,VWS V14.01,2013-04-25 11:36:00,
2013-04-25 07:41:00,66.3,62.3,30.18,West,280,1.0,3.0,87,0.00,,CLR,0.00,VWS V14.01,2013-04-25 11:41:00,
2013-04-25 07:46:00,66.3,62.3,30.18,West,278,0.0,3.0,87,0.00,,CLR,0.00,VWS V14.01,2013-04-25 11:46:00,
2013-04-25 07:51:00,66.5,62.5,30.19,WNW,284,0.0,3.0,87,0.00,,CLR,0.00,VWS V14.01,2013-04-25 11:51:00,
2013-04-25 07:56:00,66.6,62.6,30.18,WNW,292,0.0,4.0,87,0.00,,CLR,0.00,VWS V14.01,2013-04-25 11:56:00,
2013-04-25 08:01:00,66.7,63.0,30.19,WNW,285,0.0,0.0,88,0.00,,CLR,0.00,VWS V14.01,2013-04-25 12:01:00,
2013-04-25 08:06:00,66.9,63.2,30.19,WNW,290,0.0,0.0,88,0.00,,CLR,0.00,VWS V14.01,2013-04-25 12:06:00,
2013-04-25 08:11:00,67.1,63.8,30.18,WNW,286,0.0,1.0,89,0.00,,CLR,0.00,VWS V14.01,2013-04-25 12:11:00,
2013-04-25 08:16:00,67.3,64.0,30.18,WNW,285,0.0,1.0,89,0.00,,CLR,0.00,VWS V14.01,2013-04-25 12:16:00,
2013-04-25 08:21:00,67.6,63.9,30.18,WNW,291,0.0,1.0,88,0.00,,CLR,0.00,VWS V14.01,2013-04-25 12:21:00,
2013-04-25 08:26:00,67.9,64.2,30.19,WNW,288,0.0,1.0,88,0.00,,CLR,0.00,VWS V14.01,2013-04-25 12:26:00,
2013-04-25 08:31:00,68.1,64.7,30.18,WNW,283,0.0,1.0,89,0.00,,CLR,0.00,VWS V14.01,2013-04-25 12:31:00,
2013-04-25 08:36:00,68.5,64.5,30.19,WNW,293,0.0,1.0,87,0.00,,CLR,0.00,VWS V14.01,2013-04-25 12:36:00,
2013-04-25 08:41:00,68.9,64.9,30.19,WNW,291,0.0,1.0,87,0.00,,CLR,0.00,VWS V14.01,2013-04-25 12:41:00,
2013-04-25 08:46:00,69.2,65.2,30.18,WNW,284,0.0,1.0,87,0.00,,CLR,0.00,VWS V14.01,2013-04-25 12:46:00,
2013-04-25 08:51:00,69.6,65.6,30.18,WNW,288,0.0,1.0,87,0.00,,CLR,0.00,VWS V14.01,2013-04-25 12:51:00,
2013-04-25 08:56:00,70.0,65.6,30.18,WNW,286,0.0,1.0,86,0.00,,CLR,0.00,VWS V14.01,2013-04-25 12:56:00,
2013-04-25 09:01:00,70.6,65.5,30.19,WNW,292,0.0,0.0,84,0.00,,CLR,0.00,VWS V14.01,2013-04-25 13:01:00,
2013-04-25 09:06:00,71.0,65.6,30.19,WNW,292,0.0,0.0,83,0.00,,CLR,0.00,VWS V14.01,2013-04-25 13:06:00,
2013-04-25 09:11:00,71.5,66.4,30.20,WNW,286,0.0,1.0,84,0.00,,CLR,0.00,VWS V14.01,2013-04-25 13:11:00,
2013-04-25 09:16:00,71.8,66.0,30.19,WNW,285,0.0,1.0,82,0.00,,CLR,0.00,VWS V14.01,2013-04-25 13:16:00,
2013-04-25 09:21:00,72.2,66.4,30.20,WNW,286,0.0,1.0,82,0.00,,CLR,0.00,VWS V14.01,2013-04-25 13:21:00,
2013-04-25 09:26:00,72.7,66.9,30.20,WNW,282,0.0,1.0,82,0.00,,CLR,0.00,VWS V14.01,2013-04-25 13:26:00,
2013-04-25 09:31:00,73.0,66.1,30.20,WNW,283,0.0,1.0,79,0.00,,CLR,0.00,VWS V14.01,2013-04-25 13:31:00,
2013-04-25 09:36:00,73.8,65.8,30.20,SSE,157,2.0,4.0,76,0.00,,CLR,0.00,VWS V14.01,2013-04-25 13:36:00,
2013-04-25 09:41:00,74.5,65.7,30.19,East,97,4.0,6.0,74,0.00,,CLR,0.00,VWS V14.01,2013-04-25 13:41:00,
2013-04-25 09:46:00,75.3,66.1,30.20,ENE,58,3.0,7.0,73,0.00,,CLR,0.00,VWS V14.01,2013-04-25 13:46:00,
2013-04-25 09:51:00,75.7,66.0,30.20,ENE,68,3.0,7.0,72,0.00,,CLR,0.00,VWS V14.01,2013-04-25 13:51:00,
2013-04-25 09:56:00,75.9,65.8,30.20,ENE,59,2.0,7.0,71,0.00,,CLR,0.00,VWS V14.01,2013-04-25 13:56:00,
2013-04-25 10:01:00,75.9,64.6,30.20,NE,46,1.0,5.0,68,0.00,,CLR,0.00,VWS V14.01,2013-04-25 14:01:00,
2013-04-25 10:06:00,76.0,65.9,30.20,East,94,3.0,5.0,71,0.00,,CLR,0.00,VWS V14.01,2013-04-25 14:06:00,
2013-04-25 10:11:00,76.1,65.6,30.20,SSE,162,0.0,5.0,70,0.00,,CLR,0.00,VWS V14.01,2013-04-25 14:11:00,
2013-04-25 10:16:00,76.3,66.2,30.21,ESE,114,0.0,5.0,71,0.00,,CLR,0.00,VWS V14.01,2013-04-25 14:16:00,
2013-04-25 10:21:00,76.5,65.6,30.21,ENE,76,4.0,7.0,69,0.00,,CLR,0.00,VWS V14.01,2013-04-25 14:21:00,
2013-04-25 10:26:00,76.7,65.8,30.21,NNE,24,3.0,7.0,69,0.00,,CLR,0.00,VWS V14.01,2013-04-25 14:26:00,
2013-04-25 10:31:00,76.7,65.3,30.21,NNE,14,0.0,7.0,68,0.00,,CLR,0.00,VWS V14.01,2013-04-25 14:31:00,
2013-04-25 10:36:00,77.0,66.1,30.21,East,96,2.0,7.0,69,0.00,,CLR,0.00,VWS V14.01,2013-04-25 14:36:00,
2013-04-25 10:41:00,77.4,66.4,30.21,North,10,1.0,7.0,69,0.00,,CLR,0.00,VWS V14.01,2013-04-25 14:41:00,
2013-04-25 10:46:00,77.7,65.9,30.21,East,87,0.0,8.0,67,0.00,,CLR,0.00,VWS V14.01,2013-04-25 14:46:00,
2013-04-25 10:51:00,77.7,66.3,30.22,ENE,71,4.0,8.0,68,0.00,,CLR,0.00,VWS V14.01,2013-04-25 14:51:00,
2013-04-25 10:56:00,77.7,66.3,30.21,ESE,121,5.0,10.0,68,0.00,,CLR,0.00,VWS V14.01,2013-04-25 14:56:00,
2013-04-25 11:01:00,77.7,65.9,30.21,East,89,0.0,4.0,67,0.00,,CLR,0.00,VWS V14.01,2013-04-25 15:01:00,
2013-04-25 11:06:00,77.5,65.7,30.21,East,96,5.0,7.0,67,0.00,,CLR,0.00,VWS V14.01,2013-04-25 15:06:00,
2013-04-25 11:11:00,77.6,65.8,30.21,NNE,16,3.0,7.0,67,0.00,,CLR,0.00,VWS V14.01,2013-04-25 15:11:00,
2013-04-25 11:16:00,77.7,66.7,30.21,NE,55,2.0,7.0,69,0.00,,CLR,0.00,VWS V14.01,2013-04-25 15:16:00,
2013-04-25 11:21:00,77.7,65.9,30.21,East,80,5.0,7.0,67,0.00,,CLR,0.00,VWS V14.01,2013-04-25 15:21:00,
2013-04-25 11:26:00,77.9,66.1,30.22,ENE,64,2.0,7.0,67,0.00,,CLR,0.00,VWS V14.01,2013-04-25 15:26:00,
2013-04-25 11:31:00,77.9,66.1,30.22,East,99,0.0,7.0,67,0.00,,CLR,0.00,VWS V14.01,2013-04-25 15:31:00,
2013-04-25 11:36:00,77.8,65.1,30.22,NNE,19,2.0,7.0,65,0.00,,CLR,0.00,VWS V14.01,2013-04-25 15:36:00,
2013-04-25 11:41:00,77.6,65.3,30.23,North,1,3.0,7.0,66,0.00,,CLR,0.00,VWS V14.01,2013-04-25 15:41:00,
2013-04-25 11:46:00,77.6,65.3,30.22,NE,55,3.0,7.0,66,0.00,,CLR,0.00,VWS V14.01,2013-04-25 15:46:00,
2013-04-25 11:51:00,77.7,65.4,30.22,East,80,0.0,7.0,66,0.00,,CLR,0.00,VWS V14.01,2013-04-25 15:51:00,
2013-04-25 11:56:00,77.9,65.6,30.22,NNE,32,5.0,7.0,66,0.00,,CLR,0.00,VWS V14.01,2013-04-25 15:56:00,
2013-04-25 12:01:00,78.0,66.2,30.22,ESE,104,6.0,6.0,67,0.00,,CLR,0.00,VWS V14.01,2013-04-25 16:01:00,
2013-04-25 12:06:00,78.2,65.0,30.22,NNW,347,1.0,8.0,64,0.00,,CLR,0.00,VWS V14.01,2013-04-25 16:06:00,
2013-04-25 12:11:00,78.2,65.9,30.22,NNE,18,3.0,8.0,66,0.00,,CLR,0.00,VWS V14.01,2013-04-25 16:11:00,
2013-04-25 12:16:00,78.4,66.1,30.22,East,98,3.0,8.0,66,0.00,,CLR,0.00,VWS V14.01,2013-04-25 16:16:00,
2013-04-25 12:21:00,78.3,64.7,30.22,NNE,30,5.0,8.0,63,0.00,,CLR,0.00,VWS V14.01,2013-04-25 16:21:00,
2013-04-25 12:26:00,78.3,65.1,30.22,East,100,0.0,8.0,64,0.00,,CLR,0.00,VWS V14.01,2013-04-25 16:26:00,
2013-04-25 12:31:00,78.2,64.6,30.22,ENE,65,6.0,8.0,63,0.00,,CLR,0.00,VWS V14.01,2013-04-25 16:31:00,
2013-04-25 12:36:00,78.2,65.0,30.23,SE,127,1.0,8.0,64,0.00,,CLR,0.00,VWS V14.01,2013-04-25 16:36:00,
2013-04-25 12:41:00,78.5,64.9,30.23,NE,37,1.0,8.0,63,0.00,,CLR,0.00,VWS V14.01,2013-04-25 16:41:00,
2013-04-25 12:46:00,78.6,65.4,30.22,ESE,121,0.0,8.0,64,0.00,,CLR,0.00,VWS V14.01,2013-04-25 16:46:00,
2013-04-25 12:51:00,78.9,65.7,30.23,ENE,61,2.0,9.0,64,0.00,,CLR,0.00,VWS V14.01,2013-04-25 16:51:00,
2013-04-25 12:56:00,78.9,65.2,30.23,ENE,60,3.0,9.0,63,0.00,,CLR,0.00,VWS V14.01,2013-04-25 16:56:00,
2013-04-25 13:01:00,79.0,65.8,30.22,ESE,112,6.0,7.0,64,0.00,,FEW037,0.00,VWS V14.01,2013-04-25 17:01:00,
2013-04-25 13:05:00,79.2,66.0,30.22,East,80,6.0,10.0,64,0.00,,FEW037,0.00,VWS V14.01,2013-04-25 17:05:00,
2013-04-25 13:11:00,79.1,65.4,30.22,NE,45,0.0,10.0,63,0.00,,FEW037,0.00,VWS V14.01,2013-04-25 17:11:00,
2013-04-25 13:16:00,79.1,65.9,30.22,NE,46,7.0,10.0,64,0.00,,FEW037,0.00,VWS V14.01,2013-04-25 17:16:00,
2013-04-25 13:21:00,78.9,66.6,30.22,ENE,65,3.0,10.0,66,0.00,,FEW037,0.00,VWS V14.01,2013-04-25 17:21:00,
2013-04-25 13:26:00,78.7,65.5,30.22,NE,43,3.0,10.0,64,0.00,,FEW037,0.00,VWS V14.01,2013-04-25 17:26:00,
2013-04-25 13:31:00,78.4,66.1,30.22,East,90,6.0,10.0,66,0.00,,FEW037,0.00,VWS V14.01,2013-04-25 17:31:00,
2013-04-25 13:36:00,78.7,66.4,30.22,NNE,23,7.0,10.0,66,0.00,,FEW037,0.00,VWS V14.01,2013-04-25 17:36:00,
2013-04-25 13:41:00,79.0,65.8,30.22,ENE,59,5.0,10.0,64,0.00,,FEW037,0.00,VWS V14.01,2013-04-25 17:41:00,
2013-04-25 13:46:00,79.1,65.4,30.22,NE,53,5.0,10.0,63,0.00,,FEW037,0.00,VWS V14.01,2013-04-25 17:46:00,
2013-04-25 13:51:00,79.2,66.9,30.22,ESE,116,4.0,10.0,66,0.00,,FEW037,0.00,VWS V14.01,2013-04-25 17:51:00,
2013-04-25 13:56:00,79.5,66.3,30.22,NE,50,6.0,10.0,64,0.00,,FEW037,0.00,VWS V14.01,2013-04-25 17:56:00,
2013-04-25 14:01:00,79.6,66.4,30.22,NNE,17,1.0,7.0,64,0.00,,SCT037,0.00,VWS V14.01,2013-04-25 18:01:00,
2013-04-25 14:06:00,79.2,66.4,30.22,ESE,115,0.0,8.0,65,0.00,,SCT037,0.00,VWS V14.01,2013-04-25 18:06:00,
2013-04-25 14:11:00,78.9,67.0,30.22,ENE,62,4.0,10.0,67,0.00,,SCT037,0.00,VWS V14.01,2013-04-25 18:11:00,
2013-04-25 14:16:00,78.7,66.4,30.22,ENE,62,3.0,10.0,66,0.00,,SCT037,0.00,VWS V14.01,2013-04-25 18:16:00,
2013-04-25 14:21:00,78.8,66.5,30.22,ENE,74,6.0,10.0,66,0.00,,SCT037,0.00,VWS V14.01,2013-04-25 18:21:00,
2013-04-25 14:26:00,78.5,66.2,30.22,East,88,4.0,10.0,66,0.00,,SCT037,0.00,VWS V14.01,2013-04-25 18:26:00,
2013-04-25 14:31:00,78.4,66.1,30.21,East,94,3.0,10.0,66,0.00,,SCT037,0.00,VWS V14.01,2013-04-25 18:31:00,
2013-04-25 14:36:00,78.4,66.1,30.21,NE,48,6.0,10.0,66,0.00,,SCT037,0.00,VWS V14.01,2013-04-25 18:36:00,
2013-04-25 14:41:00,78.4,66.1,30.21,ESE,113,4.0,10.0,66,0.00,,SCT037,0.00,VWS V14.01,2013-04-25 18:41:00,
2013-04-25 14:46:00,78.6,65.9,30.21,East,97,4.0,10.0,65,0.00,,SCT037,0.00,VWS V14.01,2013-04-25 18:46:00,
2013-04-25 14:51:00,78.8,65.6,30.21,ENE,72,1.0,10.0,64,0.00,,SCT037,0.00,VWS V14.01,2013-04-25 18:51:00,
2013-04-25 14:56:00,78.9,65.2,30.21,NE,35,2.0,10.0,63,0.00,,SCT037,0.00,VWS V14.01,2013-04-25 18:56:00,
2013-04-25 15:01:00,78.9,66.6,30.21,NE,47,7.0,8.0,66,0.00,,SCT037,0.00,VWS V14.01,2013-04-25 19:01:00,
2013-04-25 15:06:00,79.0,66.2,30.20,ESE,112,4.0,11.0,65,0.00,,SCT037,0.00,VWS V14.01,2013-04-25 19:06:00,
2013-04-25 15:11:00,78.8,65.2,30.21,ENE,63,4.0,11.0,63,0.00,,SCT037,0.00,VWS V14.01,2013-04-25 19:11:00,
2013-04-25 15:16:00,78.5,66.2,30.20,ENE,64,5.0,11.0,66,0.00,,SCT037,0.00,VWS V14.01,2013-04-25 19:16:00,
2013-04-25 15:21:00,78.8,65.6,30.20,ENE,61,5.0,11.0,64,0.00,,SCT037,0.00,VWS V14.01,2013-04-25 19:21:00,
2013-04-25 15:26:00,78.8,65.6,30.20,North,10,4.0,11.0,64,0.00,,SCT037,0.00,VWS V14.01,2013-04-25 19:26:00,
2013-04-25 15:31:00,78.6,65.4,30.20,ENE,61,0.0,11.0,64,0.00,,SCT037,0.00,VWS V14.01,2013-04-25 19:31:00,
2013-04-25 15:36:00,78.9,66.2,30.19,East,93,3.0,11.0,65,0.00,,SCT037,0.00,VWS V14.01,2013-04-25 19:36:00,
2013-04-25 15:41:00,79.1,65.9,30.20,East,94,3.0,11.0,64,0.00,,SCT037,0.00,VWS V14.01,2013-04-25 19:41:00,
2013-04-25 15:46:00,79.3,65.6,30.19,NE,43,8.0,11.0,63,0.00,,SCT037,0.00,VWS V14.01,2013-04-25 19:46:00,
2013-04-25 15:51:00,79.2,66.0,30.19,NNE,30,7.0,11.0,64,0.00,,SCT037,0.00,VWS V14.01,2013-04-25 19:51:00,
2013-04-25 15:56:00,78.8,65.6,30.19,ENE,62,7.0,11.0,64,0.00,,SCT037,0.00,VWS V14.01,2013-04-25 19:56:00,
2013-04-25 16:01:00,79.0,64.9,30.19,ENE,60,4.0,4.0,62,0.00,,SCT035,0.00,VWS V14.01,2013-04-25 20:01:00,
2013-04-25 16:06:00,79.1,65.0,30.19,NE,45,2.0,8.0,62,0.00,,SCT035,0.00,VWS V14.01,2013-04-25 20:06:00,
2013-04-25 16:11:00,79.1,65.0,30.19,East,99,5.0,9.0,62,0.00,,SCT035,0.00,VWS V14.01,2013-04-25 20:11:00,
2013-04-25 16:16:00,79.1,65.4,30.18,East,81,5.0,9.0,63,0.00,,SCT035,0.00,VWS V14.01,2013-04-25 20:16:00,
2013-04-25 16:21:00,79.0,64.4,30.19,NE,51,1.0,12.0,61,0.00,,SCT035,0.00,VWS V14.01,2013-04-25 20:21:00,
2013-04-25 16:26:00,78.4,64.8,30.19,NE,55,1.0,12.0,63,0.00,,SCT035,0.00,VWS V14.01,2013-04-25 20:26:00,
2013-04-25 16:31:00,78.7,65.1,30.18,ESE,105,7.0,12.0,63,0.00,,SCT035,0.00,VWS V14.01,2013-04-25 20:31:00,
2013-04-25 16:36:00,78.6,64.0,30.18,North,11,0.0,12.0,61,0.00,,SCT035,0.00,VWS V14.01,2013-04-25 20:36:00,
2013-04-25 16:41:00,78.4,65.2,30.19,NE,51,3.0,12.0,64,0.00,,SCT035,0.00,VWS V14.01,2013-04-25 20:41:00,
2013-04-25 16:46:00,78.2,64.6,30.18,ENE,78,0.0,12.0,63,0.00,,SCT035,0.00,VWS V14.01,2013-04-25 20:46:00,
2013-04-25 16:51:00,78.0,64.8,30.18,NE,34,3.0,12.0,64,0.00,,SCT035,0.00,VWS V14.01,2013-04-25 20:51:00,
2013-04-25 16:56:00,77.8,65.5,30.18,ESE,111,4.0,12.0,66,0.00,,SCT035,0.00,VWS V14.01,2013-04-25 20:56:00,
2013-04-25 17:01:00,78.0,65.7,30.18,ESE,110,4.0,5.0,66,0.00,,FEW035,0.00,VWS V14.01,2013-04-25 21:01:00,
2013-04-25 17:06:00,78.3,66.0,30.19,ENE,61,4.0,6.0,66,0.00,,FEW035,0.00,VWS V14.01,2013-04-25 21:06:00,
2013-04-25 17:11:00,77.9,65.6,30.18,NE,48,2.0,7.0,66,0.00,,FEW035,0.00,VWS V14.01,2013-04-25 21:11:00,
2013-04-25 17:16:00,77.7,65.9,30.19,ENE,63,3.0,8.0,67,0.00,,FEW035,0.00,VWS V14.01,2013-04-25 21:16:00,
2013-04-25 17:21:00,77.5,65.7,30.18,East,83,2.0,8.0,67,0.00,,FEW035,0.00,VWS V14.01,2013-04-25 21:21:00,
2013-04-25 17:26:00,77.4,65.6,30.18,NE,50,0.0,8.0,67,0.00,,FEW035,0.00,VWS V14.01,2013-04-25 21:26:00,
2013-04-25 17:31:00,77.1,65.3,30.18,NE,39,8.0,9.0,67,0.00,,FEW035,0.00,VWS V14.01,2013-04-25 21:31:00,
2013-04-25 17:36:00,76.9,65.1,30.18,East,83,4.0,9.0,67,0.00,,FEW035,0.00,VWS V14.01,2013-04-25 21:36:00,
2013-04-25 17:41:00,77.1,65.7,30.18,SE,127,0.0,9.0,68,0.00,,FEW035,0.00,VWS V14.01,2013-04-25 21:41:00,
2013-04-25 17:46:00,77.4,66.4,30.19,NNE,21,1.0,9.0,69,0.00,,FEW035,0.00,VWS V14.01,2013-04-25 21:46:00,
2013-04-25 17:51:00,77.3,66.3,30.18,ENE,62,4.0,9.0,69,0.00,,FEW035,0.00,VWS V14.01,2013-04-25 21:51:00,
2013-04-25 17:56:00,77.2,65.4,30.19,East,96,2.0,9.0,67,0.00,,FEW035,0.00,VWS V14.01,2013-04-25 21:56:00,
2013-04-25 18:01:00,77.0,65.2,30.19,ESE,109,4.0,6.0,67,0.00,,FEW034,0.00,VWS V14.01,2013-04-25 22:01:00,
2013-04-25 18:06:00,76.9,65.5,30.18,NNE,26,4.0,8.0,68,0.00,,FEW034,0.00,VWS V14.01,2013-04-25 22:06:00,
2013-04-25 18:11:00,77.0,65.2,30.19,East,95,4.0,8.0,67,0.00,,FEW034,0.00,VWS V14.01,2013-04-25 22:11:00,
2013-04-25 18:16:00,77.0,65.6,30.18,NE,54,5.0,8.0,68,0.00,,FEW034,0.00,VWS V14.01,2013-04-25 22:16:00,
2013-04-25 18:21:00,77.1,66.2,30.18,NE,49,7.0,8.0,69,0.00,,FEW034,0.00,VWS V14.01,2013-04-25 22:21:00,
2013-04-25 18:26:00,76.9,65.5,30.19,ENE,78,3.0,8.0,68,0.00,,FEW034,0.00,VWS V14.01,2013-04-25 22:26:00,
2013-04-25 18:31:00,76.9,65.5,30.18,East,90,3.0,8.0,68,0.00,,FEW034,0.00,VWS V14.01,2013-04-25 22:31:00,
2013-04-25 18:36:00,76.8,65.4,30.19,ESE,113,4.0,8.0,68,0.00,,FEW034,0.00,VWS V14.01,2013-04-25 22:36:00,
2013-04-25 18:41:00,76.9,66.0,30.19,ESE,114,5.0,8.0,69,0.00,,FEW034,0.00,VWS V14.01,2013-04-25 22:41:00,
2013-04-25 18:46:00,77.0,65.6,30.19,East,94,4.0,8.0,68,0.00,,FEW034,0.00,VWS V14.01,2013-04-25 22:46:00,
2013-04-25 18:51:00,77.0,65.6,30.18,ENE,58,1.0,8.0,68,0.00,,FEW034,0.00,VWS V14.01,2013-04-25 22:51:00,
2013-04-25 18:56:00,76.8,65.4,30.18,East,86,5.0,9.0,68,0.00,,FEW034,0.00,VWS V14.01,2013-04-25 22:56:00,
2013-04-25 19:01:00,76.5,65.6,30.19,ESE,120,3.0,6.0,69,0.00,,CLR,0.00,VWS V14.01,2013-04-25 23:01:00,
2013-04-25 19:06:00,76.5,65.6,30.19,SE,125,8.0,9.0,69,0.00,,CLR,0.00,VWS V14.01,2013-04-25 23:06:00,
2013-04-25 19:11:00,76.5,65.6,30.18,East,100,3.0,9.0,69,0.00,,CLR,0.00,VWS V14.01,2013-04-25 23:11:00,
2013-04-25 19:16:00,76.4,65.5,30.18,ESE,121,3.0,9.0,69,0.00,,CLR,0.00,VWS V14.01,2013-04-25 23:16:00,
2013-04-25 19:21:00,76.3,65.8,30.18,East,101,4.0,9.0,70,0.00,,CLR,0.00,VWS V14.01,2013-04-25 23:21:00,
2013-04-25 19:26:00,76.1,65.6,30.18,ESE,104,0.0,9.0,70,0.00,,CLR,0.00,VWS V14.01,2013-04-25 23:26:00,
2013-04-25 19:31:00,75.9,65.8,30.18,ENE,65,0.0,9.0,71,0.00,,CLR,0.00,VWS V14.01,2013-04-25 23:31:00,
2013-04-25 19:36:00,75.7,65.6,30.18,East,89,2.0,9.0,71,0.00,,CLR,0.00,VWS V14.01,2013-04-25 23:36:00,
2013-04-25 19:41:00,75.5,65.4,30.18,NE,49,0.0,9.0,71,0.00,,CLR,0.00,VWS V14.01,2013-04-25 23:41:00,
2013-04-25 19:46:00,75.4,65.3,30.18,ESE,108,0.0,9.0,71,0.00,,CLR,0.00,VWS V14.01,2013-04-25 23:46:00,
2013-04-25 19:51:00,75.4,65.8,30.18,East,99,0.0,9.0,72,0.00,,CLR,0.00,VWS V14.01,2013-04-25 23:51:00,
2013-04-25 19:56:00,75.3,65.7,30.18,ENE,64,3.0,9.0,72,0.00,,CLR,0.00,VWS V14.01,2013-04-25 23:56:00,
2013-04-25 20:01:00,75.2,66.0,30.18,ENE,65,3.0,3.0,73,0.00,,CLR,0.00,VWS V14.01,2013-04-26 00:01:00,
2013-04-25 20:06:00,75.1,65.9,30.18,ENE,71,0.0,5.0,73,0.00,,CLR,0.00,VWS V14.01,2013-04-26 00:06:00,
2013-04-25 20:11:00,75.1,65.9,30.19,ENE,71,2.0,5.0,73,0.00,,CLR,0.00,VWS V14.01,2013-04-26 00:11:00,
2013-04-25 20:16:00,75.0,65.8,30.19,ENE,72,0.0,5.0,73,0.00,,CLR,0.00,VWS V14.01,2013-04-26 00:16:00,
2013-04-25 20:21:00,75.0,66.2,30.19,ENE,72,2.0,5.0,74,0.00,,CLR,0.00,VWS V14.01,2013-04-26 00:21:00,
2013-04-25 20:26:00,74.9,66.1,30.19,ESE,102,0.0,5.0,74,0.00,,CLR,0.00,VWS V14.01,2013-04-26 00:26:00,
2013-04-25 20:31:00,75.0,66.2,30.19,ESE,109,4.0,6.0,74,0.00,,CLR,0.00,VWS V14.01,2013-04-26 00:31:00,
2013-04-25 20:36:00,74.9,66.1,30.19,ENE,73,3.0,6.0,74,0.00,,CLR,0.00,VWS V14.01,2013-04-26 00:36:00,
2013-04-25 20:41:00,74.9,66.1,30.20,ESE,102,2.0,8.0,74,0.00,,CLR,0.00,VWS V14.01,2013-04-26 00:41:00,
2013-04-25 20:46:00,74.9,66.1,30.20,SE,129,1.0,8.0,74,0.00,,CLR,0.00,VWS V14.01,2013-04-26 00:46:00,
2013-04-25 20:51:00,74.8,66.3,30.20,East,101,4.0,8.0,75,0.00,,CLR,0.00,VWS V14.01,2013-04-26 00:51:00,
2013-04-25 20:56:00,74.8,66.0,30.20,ESE,111,5.0,8.0,74,0.00,,CLR,0.00,VWS V14.01,2013-04-26 00:56:00,
2013-04-25 21:01:00,74.7,66.3,30.20,East,95,4.0,4.0,75,0.00,,CLR,0.00,VWS V14.01,2013-04-26 01:01:00,
2013-04-25 21:06:00,74.7,66.3,30.20,ESE,105,2.0,4.0,75,0.00,,CLR,0.00,VWS V14.01,2013-04-26 01:06:00,
2013-04-25 21:11:00,74.7,66.3,30.20,East,94,2.0,5.0,75,0.00,,CLR,0.00,VWS V14.01,2013-04-26 01:11:00,
2013-04-25 21:16:00,74.6,66.5,30.22,ENE,68,1.0,5.0,76,0.00,,CLR,0.00,VWS V14.01,2013-04-26 01:16:00,
2013-04-25 21:21:00,74.5,66.4,30.20,East,79,2.0,7.0,76,0.00,,CLR,0.00,VWS V14.01,2013-04-26 01:21:00,
2013-04-25 21:26:00,74.5,66.4,30.22,ESE,105,4.0,7.0,76,0.00,,CLR,0.00,VWS V14.01,2013-04-26 01:26:00,
2013-04-25 21:31:00,74.5,66.4,30.21,ENE,62,3.0,7.0,76,0.00,,CLR,0.00,VWS V14.01,2013-04-26 01:31:00,
2013-04-25 21:36:00,74.6,66.5,30.21,ESE,119,1.0,7.0,76,0.00,,CLR,0.00,VWS V14.01,2013-04-26 01:36:00,
2013-04-25 21:41:00,74.5,66.8,30.21,East,93,0.0,7.0,77,0.00,,CLR,0.00,VWS V14.01,2013-04-26 01:41:00,
2013-04-25 21:46:00,74.5,66.4,30.21,ESE,105,4.0,9.0,76,0.00,,CLR,0.00,VWS V14.01,2013-04-26 01:46:00,
2013-04-25 21:51:00,74.5,66.4,30.21,East,81,2.0,9.0,76,0.00,,CLR,0.00,VWS V14.01,2013-04-26 01:51:00,
2013-04-25 21:56:00,74.5,66.1,30.21,East,93,0.0,9.0,75,0.00,,CLR,0.00,VWS V14.01,2013-04-26 01:56:00,
2013-04-25 22:01:00,74.5,65.7,30.22,East,92,4.0,7.0,74,0.00,,CLR,0.00,VWS V14.01,2013-04-26 02:01:00,
2013-04-25 22:06:00,74.5,65.7,30.22,ENE,75,4.0,9.0,74,0.00,,CLR,0.00,VWS V14.01,2013-04-26 02:06:00,
2013-04-25 22:11:00,74.5,65.7,30.22,SE,126,3.0,9.0,74,0.00,,CLR,0.00,VWS V14.01,2013-04-26 02:11:00,
2013-04-25 22:16:00,74.5,65.7,30.22,ESE,115,4.0,9.0,74,0.00,,CLR,0.00,VWS V14.01,2013-04-26 02:16:00,
2013-04-25 22:21:00,74.5,65.7,30.22,East,100,4.0,9.0,74,0.00,,CLR,0.00,VWS V14.01,2013-04-26 02:21:00,
2013-04-25 22:26:00,74.4,65.6,30.22,SE,131,4.0,9.0,74,0.00,,CLR,0.00,VWS V14.01,2013-04-26 02:26:00,
2013-04-25 22:30:00,74.4,65.6,30.22,ESE,117,2.0,9.0,74,0.00,,CLR,0.00,VWS V14.01,2013-04-26 02:30:00,
2013-04-25 22:35:00,74.5,65.7,30.22,SE,133,3.0,9.0,74,0.00,,CLR,0.00,VWS V14.01,2013-04-26 02:35:00,
2013-04-25 22:40:00,74.5,65.7,30.22,East,101,2.0,9.0,74,0.00,,CLR,0.00,VWS V14.01,2013-04-26 02:40:00,
2013-04-25 22:45:00,74.6,65.8,30.22,SE,127,2.0,9.0,74,0.00,,CLR,0.00,VWS V14.01,2013-04-26 02:45:00,
2013-04-25 22:50:00,74.5,65.3,30.22,ESE,122,1.0,9.0,73,0.00,,CLR,0.00,VWS V14.01,2013-04-26 02:50:00,
2013-04-25 22:55:00,74.4,65.2,30.22,ESE,102,2.0,9.0,73,0.00,,CLR,0.00,VWS V14.01,2013-04-26 02:55:00,
2013-04-25 23:00:00,74.3,65.1,30.22,East,91,1.0,5.0,73,0.00,,CLR,0.00,VWS V14.01,2013-04-26 03:00:00,
2013-04-25 23:05:00,74.3,65.1,30.23,ESE,117,5.0,7.0,73,0.00,,CLR,0.00,VWS V14.01,2013-04-26 03:05:00,
2013-04-25 23:10:00,74.3,65.5,30.22,ESE,122,2.0,7.0,74,0.00,,CLR,0.00,VWS V14.01,2013-04-26 03:10:00,
2013-04-25 23:15:00,74.3,65.5,30.23,East,96,3.0,8.0,74,0.00,,CLR,0.00,VWS V14.01,2013-04-26 03:15:00,
2013-04-25 23:20:00,74.3,65.1,30.22,East,93,4.0,8.0,73,0.00,,CLR,0.00,VWS V14.01,2013-04-26 03:20:00,
2013-04-25 23:25:00,74.2,65.0,30.22,ESE,104,5.0,10.0,73,0.00,,CLR,0.00,VWS V14.01,2013-04-26 03:25:00,
2013-04-25 23:30:00,74.2,65.4,30.22,East,95,4.0,10.0,74,0.00,,CLR,0.00,VWS V14.01,2013-04-26 03:30:00,
2013-04-25 23:35:00,74.3,65.1,30.22,ESE,109,4.0,12.0,73,0.00,,CLR,0.00,VWS V14.01,2013-04-26 03:35:00,
2013-04-25 23:40:00,74.3,65.1,30.22,ESE,123,4.0,12.0,73,0.00,,CLR,0.00,VWS V14.01,2013-04-26 03:40:00,
2013-04-25 23:45:00,74.3,64.7,30.22,ESE,103,4.0,12.0,72,0.00,,CLR,0.00,VWS V14.01,2013-04-26 03:45:00,
2013-04-25 23:50:00,74.3,64.7,30.22,ESE,123,5.0,12.0,72,0.00,,CLR,0.00,VWS V14.01,2013-04-26 03:50:00,
2013-04-25 23:55:00,74.3,64.7,30.22,SE,127,5.0,12.0,72,0.00,,CLR,0.00,VWS V14.01,2013-04-26 03:55:00,